Time,TemperatureF,DewpointF,PressureIn,WindDirection,WindDirectionDegrees,WindSpeedMPH,WindSpeedGustMPH,Humidity,HourlyPrecipIn,Conditions,Clouds,dailyrainin,SoftwareType,DateUTC
2013-09-04 00:00:00,63.6,62.7,29.94,East,95,0.0,1.0,97,0.00,RA,,0.00,WeatherDisplay:10.37,2013-09-04 04:00:00,
2013-09-04 01:00:00,62.3,61.4,29.94,East,95,0.0,0.0,97,0.00,CLR,,0.00,WeatherDisplay:10.37,2013-09-04 05:00:00,
2013-09-04 02:00:00,61.4,60.5,29.94,East,95,0.0,0.0,97,0.00,CLR,,0.00,WeatherDisplay:10.37,2013-09-04 06:00:00,
2013-09-04 03:00:00,61.3,60.4,29.94,North,2,0.0,1.0,97,0.00,CLR,,0.00,WeatherDisplay:10.37,2013-09-04 07:00:00,
2013-09-04 04:00:00,61.0,60.1,29.94,North,1,0.0,0.0,97,0.00,CLR,,0.00,WeatherDisplay:10.37,2013-09-04 08:00:00,
2013-09-04 05:00:00,60.0,59.1,29.95,North,2,0.0,0.0,97,0.00,OVC,,0.00,WeatherDisplay:10.37,2013-09-04 09:00:00,
2013-09-04 06:00:00,59.3,58.5,29.96,North,2,0.0,0.0,97,0.00,OVC,,0.00,WeatherDisplay:10.37,2013-09-04 10:00:00,
2013-09-04 07:00:00,59.3,58.4,29.98,North,3,0.0,0.0,97,0.00,OVC,,0.00,WeatherDisplay:10.37,2013-09-04 11:00:00,
2013-09-04 08:00:00,59.1,58.2,30.00,North,1,0.0,0.0,97,0.00,OVC,,0.00,WeatherDisplay:10.37,2013-09-04 12:00:00,
2013-09-04 09:00:00,59.5,58.6,30.01,North,3,0.0,0.0,97,0.00,OVC,,0.00,WeatherDisplay:10.37,2013-09-04 13:00:00,
2013-09-04 10:00:00,61.4,60.5,30.02,North,1,0.0,0.0,97,0.00,SCT,,0.00,WeatherDisplay:10.37,2013-09-04 14:00:00,
2013-09-04 11:00:00,71.8,68.4,30.03,South,169,0.0,3.0,89,0.36,RA,,0.36,WeatherDisplay:10.37,2013-09-04 15:00:00,
2013-09-04 12:00:00,76.2,70.3,30.02,SSW,199,0.0,4.0,82,0.00,CLR,,0.36,WeatherDisplay:10.37,2013-09-04 16:00:00,
2013-09-04 13:00:00,78.6,71.2,30.01,SE,133,1.0,6.0,78,0.00,CLR,,0.36,WeatherDisplay:10.37,2013-09-04 17:00:00,
2013-09-04 14:00:00,79.8,70.8,30.00,East,99,0.0,6.0,74,0.00,CLR,,0.36,WeatherDisplay:10.37,2013-09-04 18:00:00,
2013-09-04 15:00:00,81.5,71.2,29.99,SSE,154,0.0,7.0,71,0.00,CLR,,0.36,WeatherDisplay:10.37,2013-09-04 19:00:00,
2013-09-04 16:00:00,80.4,68.8,29.97,South,186,0.0,5.0,68,0.00,CLR,,0.36,WeatherDisplay:10.37,2013-09-04 20:00:00,
2013-09-04 17:00:00,78.4,71.4,29.97,SSE,158,0.0,4.0,79,0.00,CLR,,0.36,WeatherDisplay:10.37,2013-09-04 21:00:00,
2013-09-04 18:00:00,74.9,70.5,29.96,SSE,157,0.0,1.0,86,0.00,CLR,,0.36,WeatherDisplay:10.37,2013-09-04 22:00:00,
2013-09-04 19:00:00,71.5,69.1,29.96,SSE,157,0.0,1.0,92,0.00,CLR,,0.36,WeatherDisplay:10.37,2013-09-04 23:00:00,
2013-09-04 20:00:00,69.8,67.4,29.97,SSE,157,0.0,1.0,92,0.00,CLR,,0.36,WeatherDisplay:10.37,2013-09-05 00:00:00,
2013-09-04 21:00:00,67.4,65.6,30.00,SSE,157,0.0,1.0,94,0.00,CLR,,0.36,WeatherDisplay:10.37,2013-09-05 01:00:00,
2013-09-04 22:00:00,65.4,63.9,30.03,SSE,157,0.0,1.0,95,0.00,CLR,,0.36,WeatherDisplay:10.37,2013-09-05 02:00:00,
2013-09-04 23:00:00,63.9,62.7,30.04,SSE,157,0.0,0.0,96,0.00,CLR,,0.36,WeatherDisplay:10.37,2013-09-05 03:00:00,